Time,TemperatureF,DewpointF,PressureIn,WindDirection,WindDirectionDegrees,WindSpeedMPH,WindSpeedGustMPH,Humidity,HourlyPrecipIn,Conditions,Clouds,dailyrainin,SoftwareType,DateUTC
2013-07-26 00:00:00,74.9,66.1,29.88,SSW,200,0.0,0.0,74,0.00,,,0.01,VWS V14.01,2013-07-26 07:00:00,
2013-07-26 00:05:00,74.7,66.6,29.89,SSW,200,0.0,0.0,76,0.00,,,0.00,VWS V14.01,2013-07-26 07:05:00,
2013-07-26 00:10:00,74.2,66.5,29.89,SSW,200,0.0,0.0,77,0.00,,,0.00,VWS V14.01,2013-07-26 07:10:00,
2013-07-26 00:15:00,73.8,66.5,29.89,SSW,200,0.0,0.0,78,0.00,,,0.00,VWS V14.01,2013-07-26 07:15:00,
2013-07-26 00:20:00,73.8,66.9,29.89,SSW,200,0.0,0.0,79,0.00,,,0.00,VWS V14.01,2013-07-26 07:20:00,
2013-07-26 00:25:00,73.8,66.9,29.89,SSW,200,0.0,0.0,79,0.00,,,0.00,VWS V14.01,2013-07-26 07:25:00,
2013-07-26 00:30:00,74.0,67.1,29.89,SSW,200,0.0,0.0,79,0.00,,,0.00,VWS V14.01,2013-07-26 07:30:00,
2013-07-26 00:35:00,74.3,67.0,29.89,SSW,200,0.0,0.0,78,0.00,,,0.00,VWS V14.01,2013-07-26 07:35:00,
2013-07-26 00:40:00,74.7,67.0,29.89,SSW,200,0.0,1.0,77,0.00,,,0.00,VWS V14.01,2013-07-26 07:40:00,
2013-07-26 00:45:00,75.1,67.0,29.89,SSW,200,1.0,2.0,76,0.00,,,0.00,VWS V14.01,2013-07-26 07:45:00,
2013-07-26 00:50:00,74.9,66.8,29.89,SSW,200,1.0,3.0,76,0.00,,,0.00,VWS V14.01,2013-07-26 07:50:00,
2013-07-26 00:55:00,75.1,66.6,29.89,SSW,200,0.0,3.0,75,0.00,,,0.00,VWS V14.01,2013-07-26 07:55:00,
2013-07-26 01:00:00,75.3,66.8,29.89,SSW,201,0.0,3.0,75,0.00,,,0.00,VWS V14.01,2013-07-26 08:00:00,
2013-07-26 01:05:00,75.6,67.1,29.89,SSW,201,1.0,1.0,75,0.00,,,0.00,VWS V14.01,2013-07-26 08:05:00,
2013-07-26 01:10:00,75.6,67.1,29.89,ESE,117,1.0,4.0,75,0.00,,,0.00,VWS V14.01,2013-07-26 08:10:00,
2013-07-26 01:15:00,75.1,66.6,29.89,NNE,25,2.0,5.0,75,0.00,,,0.00,VWS V14.01,2013-07-26 08:15:00,
2013-07-26 01:20:00,74.9,66.8,29.89,NNE,19,2.0,4.0,76,0.00,,,0.00,VWS V14.01,2013-07-26 08:20:00,
2013-07-26 01:25:00,75.0,66.9,29.89,NNE,31,3.0,3.0,76,0.00,,,0.00,VWS V14.01,2013-07-26 08:25:00,
2013-07-26 01:30:00,75.0,66.9,29.89,NNE,28,0.0,4.0,76,0.00,,,0.00,VWS V14.01,2013-07-26 08:30:00,
2013-07-26 01:35:00,75.0,66.6,29.89,North,5,0.0,3.0,75,0.00,,,0.00,VWS V14.01,2013-07-26 08:35:00,
2013-07-26 01:40:00,75.1,67.0,29.89,North,5,0.0,2.0,76,0.00,,,0.00,VWS V14.01,2013-07-26 08:40:00,
2013-07-26 01:45:00,75.1,67.0,29.89,North,5,0.0,1.0,76,0.00,,,0.00,VWS V14.01,2013-07-26 08:45:00,
2013-07-26 01:50:00,75.0,66.6,29.89,North,5,0.0,0.0,75,0.00,,,0.00,VWS V14.01,2013-07-26 08:50:00,
2013-07-26 01:55:00,74.9,66.8,29.89,North,5,0.0,0.0,76,0.00,,,0.00,VWS V14.01,2013-07-26 08:55:00,
2013-07-26 02:00:00,75.1,67.0,29.89,North,5,0.0,1.0,76,0.00,,,0.00,VWS V14.01,2013-07-26 09:00:00,
2013-07-26 02:05:00,75.1,67.0,29.89,North,5,0.0,1.0,76,0.00,,,0.00,VWS V14.01,2013-07-26 09:05:00,
2013-07-26 02:10:00,75.0,66.9,29.90,North,5,0.0,0.0,76,0.00,,,0.00,VWS V14.01,2013-07-26 09:10:00,
2013-07-26 02:15:00,74.9,66.8,29.90,North,5,0.0,1.0,76,0.00,,,0.00,VWS V14.01,2013-07-26 09:15:00,
2013-07-26 02:20:00,75.0,66.9,29.90,North,5,0.0,1.0,76,0.00,,,0.00,VWS V14.01,2013-07-26 09:20:00,
2013-07-26 02:25:00,75.1,67.4,29.90,North,5,0.0,1.0,77,0.00,,,0.00,VWS V14.01,2013-07-26 09:25:00,
2013-07-26 02:30:00,75.4,67.3,29.90,North,5,0.0,1.0,76,0.00,,,0.00,VWS V14.01,2013-07-26 09:30:00,
2013-07-26 02:35:00,75.4,67.7,29.90,North,5,0.0,2.0,77,0.00,,,0.00,VWS V14.01,2013-07-26 09:35:00,
2013-07-26 02:40:00,75.4,67.7,29.90,North,5,0.0,1.0,77,0.00,,,0.00,VWS V14.01,2013-07-26 09:40:00,
2013-07-26 02:45:00,75.3,67.6,29.90,North,5,0.0,0.0,77,0.00,,,0.00,VWS V14.01,2013-07-26 09:45:00,
2013-07-26 02:50:00,75.1,67.4,29.90,North,5,0.0,0.0,77,0.00,,,0.00,VWS V14.01,2013-07-26 09:50:00,
2013-07-26 02:55:00,75.1,67.8,29.90,North,5,0.0,2.0,78,0.00,,,0.00,VWS V14.01,2013-07-26 09:55:00,
2013-07-26 03:00:00,75.1,67.8,29.90,North,5,0.0,1.0,78,0.00,,,0.00,VWS V14.01,2013-07-26 10:00:00,
2013-07-26 03:05:00,75.1,67.8,29.90,North,5,0.0,0.0,78,0.00,,,0.00,VWS V14.01,2013-07-26 10:05:00,
2013-07-26 03:10:00,75.1,67.8,29.90,North,5,0.0,1.0,78,0.00,,,0.00,VWS V14.01,2013-07-26 10:10:00,
2013-07-26 03:15:00,75.2,67.9,29.90,North,5,0.0,2.0,78,0.00,,,0.00,VWS V14.01,2013-07-26 10:15:00,
2013-07-26 03:20:00,75.2,67.9,29.90,North,5,1.0,2.0,78,0.00,,,0.00,VWS V14.01,2013-07-26 10:20:00,
2013-07-26 03:25:00,75.1,68.2,29.90,North,5,0.0,1.0,79,0.00,,,0.00,VWS V14.01,2013-07-26 10:25:00,
2013-07-26 03:30:00,74.9,68.7,29.90,North,5,0.0,2.0,81,0.00,,,0.00,VWS V14.01,2013-07-26 10:30:00,
2013-07-26 03:35:00,74.7,68.8,29.91,North,5,0.0,0.0,82,0.00,,,0.00,VWS V14.01,2013-07-26 10:35:00,
2013-07-26 03:40:00,74.5,68.7,29.91,North,5,0.0,0.0,82,0.00,,,0.00,VWS V14.01,2013-07-26 10:40:00,
2013-07-26 03:45:00,74.5,68.7,29.91,North,5,2.0,2.0,82,0.00,,,0.00,VWS V14.01,2013-07-26 10:45:00,
2013-07-26 03:50:00,74.4,68.6,29.91,North,5,2.0,2.0,82,0.00,,,0.00,VWS V14.01,2013-07-26 10:50:00,
2013-07-26 03:55:00,74.5,68.7,29.91,NNW,338,1.0,4.0,82,0.00,,,0.00,VWS V14.01,2013-07-26 10:55:00,
2013-07-26 04:00:00,74.6,68.4,29.91,NNW,344,1.0,3.0,81,0.00,,,0.00,VWS V14.01,2013-07-26 11:00:00,
2013-07-26 04:05:00,74.8,68.2,29.91,NNW,344,0.0,2.0,80,0.00,,,0.00,VWS V14.01,2013-07-26 11:05:00,
2013-07-26 04:10:00,74.9,68.7,29.91,NNW,344,0.0,2.0,81,0.00,,,0.00,VWS V14.01,2013-07-26 11:10:00,
2013-07-26 04:15:00,74.8,68.6,29.91,North,5,0.0,3.0,81,0.00,,,0.00,VWS V14.01,2013-07-26 11:15:00,
2013-07-26 04:20:00,74.5,69.0,29.92,North,11,0.0,3.0,83,0.00,,,0.00,VWS V14.01,2013-07-26 11:20:00,
2013-07-26 04:25:00,74.1,69.0,29.92,WSW,248,0.0,2.0,84,0.00,,,0.00,VWS V14.01,2013-07-26 11:25:00,
2013-07-26 04:30:00,74.0,68.9,29.92,WSW,249,0.0,2.0,84,0.00,,,0.00,VWS V14.01,2013-07-26 11:30:00,
2013-07-26 04:35:00,74.1,69.0,29.92,WSW,251,0.0,2.0,84,0.00,,,0.00,VWS V14.01,2013-07-26 11:35:00,
2013-07-26 04:40:00,74.1,69.0,29.92,WSW,251,0.0,0.0,84,0.00,,,0.00,VWS V14.01,2013-07-26 11:40:00,
2013-07-26 04:45:00,74.1,69.3,29.92,WSW,251,0.0,1.0,85,0.00,,,0.00,VWS V14.01,2013-07-26 11:45:00,
2013-07-26 04:50:00,73.9,69.1,29.92,WSW,251,0.0,0.0,85,0.00,,,0.00,VWS V14.01,2013-07-26 11:50:00,
2013-07-26 04:55:00,73.7,69.3,29.92,WSW,251,0.0,0.0,86,0.00,,,0.00,VWS V14.01,2013-07-26 11:55:00,
2013-07-26 05:00:00,73.7,69.3,29.92,WSW,251,0.0,0.0,86,0.00,,,0.00,VWS V14.01,2013-07-26 12:00:00,
2013-07-26 05:05:00,73.7,69.3,29.93,WSW,251,0.0,0.0,86,0.00,,,0.00,VWS V14.01,2013-07-26 12:05:00,
2013-07-26 05:10:00,73.9,69.4,29.93,WSW,251,0.0,0.0,86,0.00,,,0.00,VWS V14.01,2013-07-26 12:10:00,
2013-07-26 05:15:00,74.2,69.1,29.93,WSW,251,0.0,0.0,84,0.00,,,0.00,VWS V14.01,2013-07-26 12:15:00,
2013-07-26 05:20:00,74.4,68.9,29.93,WSW,251,0.0,0.0,83,0.00,,,0.00,VWS V14.01,2013-07-26 12:20:00,
2013-07-26 05:25:00,74.4,68.6,29.93,WSW,251,0.0,0.0,82,0.00,,,0.00,VWS V14.01,2013-07-26 12:25:00,
2013-07-26 05:30:00,74.5,69.0,29.93,WSW,251,0.0,1.0,83,0.00,,,0.00,VWS V14.01,2013-07-26 12:30:00,
2013-07-26 05:35:00,74.3,69.2,29.93,WSW,251,0.0,2.0,84,0.00,,,0.00,VWS V14.01,2013-07-26 12:35:00,
2013-07-26 05:40:00,74.2,69.4,29.93,WSW,250,1.0,1.0,85,0.00,,,0.00,VWS V14.01,2013-07-26 12:40:00,
2013-07-26 05:46:00,74.1,69.3,29.94,WSW,251,0.0,2.0,85,0.00,,,0.00,VWS V14.01,2013-07-26 12:46:00,
2013-07-26 05:51:00,74.2,69.1,29.94,West,263,0.0,1.0,84,0.00,,,0.00,VWS V14.01,2013-07-26 12:51:00,
2013-07-26 05:56:00,74.2,69.1,29.94,West,263,0.0,1.0,84,0.00,,,0.00,VWS V14.01,2013-07-26 12:56:00,
2013-07-26 06:01:00,74.5,69.0,29.94,West,263,0.0,1.0,83,0.00,,,0.00,VWS V14.01,2013-07-26 13:01:00,
2013-07-26 06:06:00,74.4,68.9,29.94,West,263,0.0,0.0,83,0.00,,,0.00,VWS V14.01,2013-07-26 13:06:00,
2013-07-26 06:11:00,74.3,69.2,29.94,West,263,0.0,1.0,84,0.00,,,0.00,VWS V14.01,2013-07-26 13:11:00,
2013-07-26 06:16:00,74.3,69.2,29.94,West,263,0.0,1.0,84,0.00,,,0.00,VWS V14.01,2013-07-26 13:16:00,
2013-07-26 06:21:00,74.3,69.2,29.94,West,263,0.0,1.0,84,0.00,,,0.00,VWS V14.01,2013-07-26 13:21:00,
2013-07-26 06:26:00,74.5,69.3,29.95,West,263,0.0,1.0,84,0.00,,,0.00,VWS V14.01,2013-07-26 13:26:00,
2013-07-26 06:31:00,74.7,69.6,29.95,West,263,1.0,3.0,84,0.00,,,0.00,VWS V14.01,2013-07-26 13:31:00,
2013-07-26 06:36:00,74.9,69.7,29.95,West,263,0.0,2.0,84,0.00,,,0.00,VWS V14.01,2013-07-26 13:36:00,
2013-07-26 06:41:00,75.1,69.6,29.95,West,263,0.0,1.0,83,0.00,,,0.00,VWS V14.01,2013-07-26 13:41:00,
2013-07-26 06:46:00,75.5,70.0,29.95,West,263,0.0,0.0,83,0.00,,,0.00,VWS V14.01,2013-07-26 13:46:00,
2013-07-26 06:51:00,75.8,69.9,29.96,West,263,0.0,0.0,82,0.00,,,0.00,VWS V14.01,2013-07-26 13:51:00,
2013-07-26 06:56:00,76.2,69.2,29.96,West,263,0.0,0.0,79,0.00,,,0.00,VWS V14.01,2013-07-26 13:56:00,
2013-07-26 07:01:00,76.4,68.3,29.96,West,263,0.0,1.0,76,0.00,,,0.00,VWS V14.01,2013-07-26 14:01:00,
2013-07-26 07:06:00,76.6,68.5,29.96,West,263,1.0,2.0,76,0.00,,,0.00,VWS V14.01,2013-07-26 14:06:00,
2013-07-26 07:11:00,76.7,68.2,29.96,WSW,249,0.0,3.0,75,0.00,,,0.00,VWS V14.01,2013-07-26 14:11:00,
2013-07-26 07:16:00,76.8,67.9,29.96,WSW,249,0.0,3.0,74,0.00,,,0.00,VWS V14.01,2013-07-26 14:16:00,
2013-07-26 07:21:00,77.1,68.2,29.96,WSW,249,0.0,1.0,74,0.00,,,0.00,VWS V14.01,2013-07-26 14:21:00,
2013-07-26 07:26:00,77.4,68.1,29.97,WSW,251,0.0,1.0,73,0.00,,,0.00,VWS V14.01,2013-07-26 14:26:00,
2013-07-26 07:31:00,77.8,68.5,29.97,WSW,251,0.0,0.0,73,0.00,,,0.00,VWS V14.01,2013-07-26 14:31:00,
2013-07-26 07:36:00,78.0,68.2,29.97,WSW,251,0.0,0.0,72,0.00,,,0.00,VWS V14.01,2013-07-26 14:36:00,
2013-07-26 07:41:00,78.0,67.0,29.97,WSW,251,0.0,1.0,69,0.00,,,0.00,VWS V14.01,2013-07-26 14:41:00,
2013-07-26 07:46:00,78.2,67.6,29.97,WSW,251,0.0,0.0,70,0.00,,,0.00,VWS V14.01,2013-07-26 14:46:00,
2013-07-26 07:51:00,78.5,67.1,29.97,WSW,251,0.0,0.0,68,0.00,,,0.00,VWS V14.01,2013-07-26 14:51:00,
2013-07-26 07:56:00,78.4,68.2,29.97,WSW,251,0.0,0.0,71,0.00,,,0.00,VWS V14.01,2013-07-26 14:56:00,
2013-07-26 08:01:00,78.4,67.4,29.97,WSW,251,0.0,0.0,69,0.00,,,0.00,VWS V14.01,2013-07-26 15:01:00,
2013-07-26 08:06:00,78.7,67.3,29.97,WSW,251,0.0,1.0,68,0.00,,,0.00,VWS V14.01,2013-07-26 15:06:00,
2013-07-26 08:11:00,78.8,67.4,29.98,WSW,251,0.0,1.0,68,0.00,,,0.00,VWS V14.01,2013-07-26 15:11:00,
2013-07-26 08:16:00,78.9,67.4,29.97,WSW,251,0.0,1.0,68,0.00,,,0.00,VWS V14.01,2013-07-26 15:16:00,
2013-07-26 08:21:00,79.1,67.6,29.98,WSW,251,0.0,1.0,68,0.00,,,0.00,VWS V14.01,2013-07-26 15:21:00,
2013-07-26 08:26:00,79.5,67.6,29.98,WSW,251,0.0,1.0,67,0.00,,,0.00,VWS V14.01,2013-07-26 15:26:00,
2013-07-26 08:31:00,80.1,67.7,29.98,WSW,251,0.0,1.0,66,0.00,,,0.00,VWS V14.01,2013-07-26 15:31:00,
2013-07-26 08:41:00,81.6,68.7,29.97,NNW,344,0.0,3.0,65,0.00,,,0.00,VWS V14.01,2013-07-26 15:41:00,
2013-07-26 08:46:00,82.1,68.3,29.97,NNW,346,2.0,4.0,63,0.00,,,0.00,VWS V14.01,2013-07-26 15:46:00,
2013-07-26 08:51:00,82.9,68.6,29.97,North,350,0.0,4.0,62,0.00,,,0.00,VWS V14.01,2013-07-26 15:51:00,
2013-07-26 08:56:00,83.3,67.5,29.97,NE,38,0.0,2.0,59,0.00,,,0.00,VWS V14.01,2013-07-26 15:56:00,
2013-07-26 09:01:00,84.4,67.5,29.97,NNE,21,2.0,3.0,57,0.00,,,0.00,VWS V14.01,2013-07-26 16:01:00,
2013-07-26 09:06:00,84.5,67.6,29.97,ENE,61,2.0,6.0,57,0.00,,,0.00,VWS V14.01,2013-07-26 16:06:00,
2013-07-26 09:11:00,85.3,67.8,29.97,North,5,0.0,4.0,56,0.00,,,0.00,VWS V14.01,2013-07-26 16:11:00,
2013-07-26 09:16:00,85.1,66.6,29.97,ESE,109,0.0,0.0,54,0.00,,,0.00,VWS V14.01,2013-07-26 16:16:00,
2013-07-26 09:22:00,86.0,66.3,29.97,ESE,109,2.0,4.0,52,0.00,,,0.00,VWS V14.01,2013-07-26 16:22:00,
2013-07-26 09:27:00,86.0,67.4,29.97,ESE,114,0.0,1.0,54,0.00,,,0.00,VWS V14.01,2013-07-26 16:27:00,
2013-07-26 09:32:00,85.6,66.5,29.97,SE,142,2.0,2.0,53,0.00,,,0.00,VWS V14.01,2013-07-26 16:32:00,
2013-07-26 09:37:00,86.5,67.3,29.97,SSE,167,0.0,5.0,53,0.00,,,0.00,VWS V14.01,2013-07-26 16:37:00,
2013-07-26 09:42:00,88.1,66.6,29.97,South,186,0.0,2.0,49,0.00,,,0.00,VWS V14.01,2013-07-26 16:42:00,
2013-07-26 09:47:00,87.9,66.9,29.97,South,186,0.0,0.0,50,0.00,,,0.00,VWS V14.01,2013-07-26 16:47:00,
2013-07-26 09:52:00,89.3,65.8,29.97,South,186,5.0,5.0,46,0.00,,,0.00,VWS V14.01,2013-07-26 16:52:00,
2013-07-26 09:57:00,89.8,66.3,29.97,SSW,210,7.0,7.0,46,0.00,,,0.00,VWS V14.01,2013-07-26 16:57:00,
2013-07-26 10:02:00,90.6,67.0,29.97,SW,220,1.0,5.0,46,0.00,,,0.00,VWS V14.01,2013-07-26 17:02:00,
2013-07-26 10:07:00,90.6,65.7,29.97,SW,214,2.0,3.0,44,0.00,,,0.00,VWS V14.01,2013-07-26 17:07:00,
2013-07-26 10:12:00,90.5,66.3,29.97,WSW,246,2.0,6.0,45,0.00,,,0.00,VWS V14.01,2013-07-26 17:12:00,
2013-07-26 10:17:00,91.1,66.2,29.96,SW,223,2.0,5.0,44,0.00,,,0.00,VWS V14.01,2013-07-26 17:17:00,
2013-07-26 10:22:00,91.5,66.5,29.96,SW,217,1.0,9.0,44,0.00,,,0.00,VWS V14.01,2013-07-26 17:22:00,
2013-07-26 10:27:00,91.1,65.5,29.96,West,259,1.0,2.0,43,0.00,,,0.00,VWS V14.01,2013-07-26 17:27:00,
2013-07-26 10:32:00,91.3,66.3,29.96,South,180,0.0,1.0,44,0.00,,,0.00,VWS V14.01,2013-07-26 17:32:00,
2013-07-26 10:37:00,92.6,66.9,29.96,South,183,10.0,10.0,43,0.00,,,0.00,VWS V14.01,2013-07-26 17:37:00,
2013-07-26 10:42:00,92.7,66.3,29.96,SSW,201,1.0,2.0,42,0.00,,,0.00,VWS V14.01,2013-07-26 17:42:00,
2013-07-26 10:47:00,91.8,66.1,29.96,SSE,165,2.0,4.0,43,0.00,,,0.00,VWS V14.01,2013-07-26 17:47:00,
2013-07-26 10:52:00,92.9,65.8,29.95,SW,215,4.0,7.0,41,0.00,,,0.00,VWS V14.01,2013-07-26 17:52:00,
2013-07-26 10:57:00,93.1,65.9,29.95,SSW,201,0.0,2.0,41,0.00,,,0.00,VWS V14.01,2013-07-26 17:57:00,
2013-07-26 11:02:00,92.4,65.3,29.95,SSW,205,0.0,4.0,41,0.00,,,0.00,VWS V14.01,2013-07-26 18:02:00,
2013-07-26 11:07:00,91.3,65.0,29.95,West,277,0.0,3.0,42,0.00,,,0.00,VWS V14.01,2013-07-26 18:07:00,
2013-07-26 11:12:00,89.8,64.3,29.95,NW,311,6.0,8.0,43,0.00,,,0.00,VWS V14.01,2013-07-26 18:12:00,
2013-07-26 11:17:00,89.2,64.5,29.94,WNW,284,0.0,3.0,44,0.00,,,0.00,VWS V14.01,2013-07-26 18:17:00,
2013-07-26 11:22:00,89.5,64.7,29.94,West,281,2.0,4.0,44,0.00,,,0.00,VWS V14.01,2013-07-26 18:22:00,
2013-07-26 11:27:00,89.5,64.1,29.94,SW,234,5.0,7.0,43,0.00,,,0.00,VWS V14.01,2013-07-26 18:27:00,
2013-07-26 11:32:00,89.4,64.0,29.94,WNW,288,4.0,4.0,43,0.00,,,0.00,VWS V14.01,2013-07-26 18:32:00,
2013-07-26 11:37:00,91.3,64.3,29.94,WNW,290,7.0,10.0,41,0.00,,,0.00,VWS V14.01,2013-07-26 18:37:00,
2013-07-26 11:42:00,92.1,65.0,29.94,SW,220,3.0,6.0,41,0.00,,,0.00,VWS V14.01,2013-07-26 18:42:00,
2013-07-26 11:47:00,93.5,64.8,29.94,SW,217,0.0,3.0,39,0.00,,,0.00,VWS V14.01,2013-07-26 18:47:00,
2013-07-26 11:52:00,92.4,63.9,29.94,North,360,3.0,4.0,39,0.00,,,0.00,VWS V14.01,2013-07-26 18:52:00,
2013-07-26 11:57:00,91.9,64.9,29.93,SW,223,2.0,5.0,41,0.00,,,0.00,VWS V14.01,2013-07-26 18:57:00,
2013-07-26 12:02:00,94.4,64.9,29.93,SW,225,0.0,3.0,38,0.00,,,0.00,VWS V14.01,2013-07-26 19:02:00,
2013-07-26 12:07:00,93.1,63.8,29.94,WNW,286,1.0,2.0,38,0.00,,,0.00,VWS V14.01,2013-07-26 19:07:00,
2013-07-26 12:12:00,95.1,64.0,29.94,West,265,0.0,3.0,36,0.00,,,0.00,VWS V14.01,2013-07-26 19:12:00,
2013-07-26 12:17:00,94.6,63.5,29.93,WNW,294,0.0,6.0,36,0.00,,,0.00,VWS V14.01,2013-07-26 19:17:00,
2013-07-26 12:22:00,92.6,64.1,29.93,NW,309,0.0,2.0,39,0.00,,,0.00,VWS V14.01,2013-07-26 19:22:00,
2013-07-26 12:27:00,92.4,63.1,29.93,NW,315,5.0,8.0,38,0.00,,,0.00,VWS V14.01,2013-07-26 19:27:00,
2013-07-26 12:32:00,91.2,62.8,29.93,NW,315,0.0,5.0,39,0.00,,,0.00,VWS V14.01,2013-07-26 19:32:00,
2013-07-26 12:37:00,90.9,62.5,29.93,WNW,298,0.0,3.0,39,0.00,,,0.00,VWS V14.01,2013-07-26 19:37:00,
2013-07-26 12:42:00,91.3,62.9,29.93,West,269,0.0,6.0,39,0.00,,,0.00,VWS V14.01,2013-07-26 19:42:00,
2013-07-26 12:47:00,91.1,62.0,29.93,WNW,300,0.0,1.0,38,0.00,,,0.00,VWS V14.01,2013-07-26 19:47:00,
2013-07-26 12:52:00,92.5,63.2,29.92,NNW,327,4.0,4.0,38,0.00,,,0.00,VWS V14.01,2013-07-26 19:52:00,
2013-07-26 12:57:00,93.1,63.0,29.92,WNW,288,1.0,1.0,37,0.00,,,0.00,VWS V14.01,2013-07-26 19:57:00,
2013-07-26 13:02:00,93.1,63.8,29.92,NW,319,6.0,6.0,38,0.00,,,0.00,VWS V14.01,2013-07-26 20:02:00,
2013-07-26 13:07:00,92.0,63.5,29.91,NNW,346,2.0,3.0,39,0.00,,,0.00,VWS V14.01,2013-07-26 20:07:00,
2013-07-26 13:12:00,91.4,63.7,29.91,NNW,340,7.0,7.0,40,0.00,,,0.00,VWS V14.01,2013-07-26 20:12:00,
2013-07-26 13:17:00,90.5,65.6,29.92,NNE,19,7.0,15.0,44,0.00,,,0.00,VWS V14.01,2013-07-26 20:17:00,
2013-07-26 13:22:00,87.4,67.6,29.93,ENE,71,7.0,11.0,52,0.00,,,0.00,VWS V14.01,2013-07-26 20:22:00,
2013-07-26 13:27:00,81.3,70.2,29.93,NE,38,4.0,8.0,69,0.01,,,0.01,VWS V14.01,2013-07-26 20:27:00,
2013-07-26 13:32:00,76.8,68.7,29.94,ENE,69,4.0,11.0,76,0.06,,,0.06,VWS V14.01,2013-07-26 20:32:00,
2013-07-26 13:37:00,73.9,67.3,29.95,NE,36,6.0,12.0,80,0.12,,,0.12,VWS V14.01,2013-07-26 20:37:00,
2013-07-26 13:42:00,72.4,66.2,29.92,NE,35,18.0,18.0,81,0.21,,,0.21,VWS V14.01,2013-07-26 20:42:00,
2013-07-26 13:47:00,71.0,65.6,29.95,NE,56,13.0,29.0,83,0.48,,,0.48,VWS V14.01,2013-07-26 20:47:00,
2013-07-26 13:52:00,69.7,65.0,29.93,NNW,348,23.0,23.0,85,0.73,,,0.73,VWS V14.01,2013-07-26 20:52:00,
2013-07-26 13:57:00,68.1,62.1,29.93,NNW,344,35.0,35.0,81,0.92,,,0.92,VWS V14.01,2013-07-26 20:57:00,
2013-07-26 14:02:00,67.5,62.5,29.93,NW,318,23.0,25.0,84,0.98,,,0.98,VWS V14.01,2013-07-26 21:02:00,
2013-07-26 14:07:00,69.6,64.2,29.94,NNW,343,16.0,19.0,83,1.00,,,1.00,VWS V14.01,2013-07-26 21:07:00,
2013-07-26 14:12:00,71.7,66.6,29.95,NW,316,4.0,10.0,84,1.03,,,1.03,VWS V14.01,2013-07-26 21:12:00,
2013-07-26 14:17:00,71.1,66.4,29.95,NNE,18,0.0,1.0,85,1.05,,,1.05,VWS V14.01,2013-07-26 21:17:00,
2013-07-26 14:22:00,70.6,66.9,29.96,NE,45,1.0,2.0,88,1.09,,,1.09,VWS V14.01,2013-07-26 21:22:00,
2013-07-26 14:27:00,70.4,66.3,29.96,SE,133,0.0,1.0,87,1.09,,,1.10,VWS V14.01,2013-07-26 21:27:00,
2013-07-26 14:32:00,70.4,66.7,29.96,SE,133,0.0,0.0,88,1.07,,,1.12,VWS V14.01,2013-07-26 21:32:00,
2013-07-26 14:37:00,70.5,67.1,29.95,SE,133,1.0,1.0,89,1.02,,,1.14,VWS V14.01,2013-07-26 21:37:00,
2013-07-26 14:42:00,70.5,67.4,29.94,SE,133,0.0,1.0,90,0.97,,,1.14,VWS V14.01,2013-07-26 21:42:00,
2013-07-26 14:47:00,70.4,67.3,29.93,SE,133,1.0,2.0,90,0.71,,,1.15,VWS V14.01,2013-07-26 21:47:00,
2013-07-26 14:52:00,70.3,67.2,29.93,NNE,26,0.0,2.0,90,0.48,,,1.16,VWS V14.01,2013-07-26 21:52:00,
2013-07-26 14:57:00,70.4,67.3,29.93,NNE,26,0.0,0.0,90,0.27,,,1.17,VWS V14.01,2013-07-26 21:57:00,
2013-07-26 15:02:00,70.8,68.1,29.92,NNE,26,0.0,0.0,91,0.20,,,1.17,VWS V14.01,2013-07-26 22:02:00,
2013-07-26 15:07:00,71.0,68.2,29.93,NNE,26,1.0,2.0,91,0.17,,,1.17,VWS V14.01,2013-07-26 22:07:00,
2013-07-26 15:12:00,71.3,68.5,29.93,NNE,26,1.0,1.0,91,0.15,,,1.17,VWS V14.01,2013-07-26 22:12:00,
2013-07-26 15:17:00,71.5,68.7,29.92,NW,315,2.0,4.0,91,0.13,,,1.17,VWS V14.01,2013-07-26 22:17:00,
2013-07-26 15:22:00,71.8,69.0,29.92,NW,323,2.0,3.0,91,0.09,,,1.17,VWS V14.01,2013-07-26 22:22:00,
2013-07-26 15:27:00,72.0,68.9,29.91,NNW,342,5.0,6.0,90,0.07,,,1.17,VWS V14.01,2013-07-26 22:27:00,
2013-07-26 15:32:00,72.4,69.0,29.91,North,355,4.0,6.0,89,0.05,,,1.17,VWS V14.01,2013-07-26 22:32:00,
2013-07-26 15:37:00,72.8,69.0,29.92,NW,325,5.0,5.0,88,0.04,,,1.17,VWS V14.01,2013-07-26 22:37:00,
2013-07-26 15:43:00,73.1,69.7,29.91,NNW,340,4.0,5.0,89,0.03,,,1.17,VWS V14.01,2013-07-26 22:43:00,
2013-07-26 15:48:00,73.7,70.3,29.91,NNW,346,5.0,5.0,89,0.02,,,1.17,VWS V14.01,2013-07-26 22:48:00,
2013-07-26 15:53:00,74.2,70.4,29.90,NNW,347,0.0,2.0,88,0.01,,,1.17,VWS V14.01,2013-07-26 22:53:00,
2013-07-26 15:58:00,74.6,70.5,29.90,North,350,2.0,3.0,87,0.00,,,1.17,VWS V14.01,2013-07-26 22:58:00,
2013-07-26 16:03:00,75.1,70.3,29.90,NNW,342,4.0,4.0,85,0.00,,,1.17,VWS V14.01,2013-07-26 23:03:00,
2013-07-26 16:08:00,75.5,70.3,29.90,NNW,342,3.0,3.0,84,0.00,,,1.17,VWS V14.01,2013-07-26 23:08:00,
2013-07-26 16:13:00,75.7,70.2,29.90,North,351,1.0,4.0,83,0.00,,,1.17,VWS V14.01,2013-07-26 23:13:00,
2013-07-26 16:18:00,76.1,70.2,29.90,NNW,348,0.0,1.0,82,0.00,,,1.17,VWS V14.01,2013-07-26 23:18:00,
2013-07-26 16:23:00,76.4,71.2,29.91,West,261,1.0,4.0,84,0.00,,,1.17,VWS V14.01,2013-07-26 23:23:00,
2013-07-26 16:28:00,77.6,67.9,29.90,WSW,257,0.0,4.0,72,0.00,,,1.17,VWS V14.01,2013-07-26 23:28:00,
2013-07-26 16:33:00,77.5,69.3,29.90,WSW,241,1.0,3.0,76,0.00,,,1.17,VWS V14.01,2013-07-26 23:33:00,
2013-07-26 16:38:00,77.1,69.0,29.90,West,277,2.0,8.0,76,0.00,,,1.17,VWS V14.01,2013-07-26 23:38:00,
2013-07-26 16:43:00,77.1,69.3,29.90,West,260,0.0,0.0,77,0.00,,,1.17,VWS V14.01,2013-07-26 23:43:00,
2013-07-26 16:48:00,77.1,70.1,29.90,West,263,1.0,2.0,79,0.00,,,1.17,VWS V14.01,2013-07-26 23:48:00,
2013-07-26 16:53:00,77.3,68.8,29.89,WNW,294,0.0,0.0,75,0.00,,,1.17,VWS V14.01,2013-07-26 23:53:00,
2013-07-26 16:58:00,77.4,69.6,29.89,WNW,294,0.0,0.0,77,0.00,,,1.17,VWS V14.01,2013-07-26 23:58:00,
2013-07-26 17:03:00,77.1,69.7,29.89,WNW,294,0.0,1.0,78,0.00,,,1.17,VWS V14.01,2013-07-27 00:03:00,
2013-07-26 17:08:00,77.1,70.5,29.89,WNW,294,0.0,1.0,80,0.00,,,1.17,VWS V14.01,2013-07-27 00:08:00,
2013-07-26 17:13:00,77.1,70.1,29.89,WSW,242,0.0,1.0,79,0.00,,,1.17,VWS V14.01,2013-07-27 00:13:00,
2013-07-26 17:18:00,77.1,70.1,29.89,WSW,242,0.0,1.0,79,0.00,,,1.17,VWS V14.01,2013-07-27 00:18:00,
2013-07-26 17:23:00,77.2,70.2,29.89,WSW,242,0.0,0.0,79,0.00,,,1.17,VWS V14.01,2013-07-27 00:23:00,
2013-07-26 17:28:00,77.1,69.3,29.88,WSW,242,0.0,1.0,77,0.00,,,1.17,VWS V14.01,2013-07-27 00:28:00,
2013-07-26 17:33:00,77.1,70.5,29.89,WSW,242,0.0,0.0,80,0.00,,,1.17,VWS V14.01,2013-07-27 00:33:00,
2013-07-26 17:38:00,77.1,70.5,29.88,WSW,242,0.0,1.0,80,0.00,,,1.17,VWS V14.01,2013-07-27 00:38:00,
2013-07-26 17:43:00,77.0,70.4,29.88,WSW,242,0.0,0.0,80,0.00,,,1.17,VWS V14.01,2013-07-27 00:43:00,
2013-07-26 17:48:00,77.2,70.9,29.88,WSW,242,0.0,0.0,81,0.00,,,1.17,VWS V14.01,2013-07-27 00:48:00,
2013-07-26 17:53:00,77.2,70.9,29.88,WSW,242,0.0,0.0,81,0.00,,,1.17,VWS V14.01,2013-07-27 00:53:00,
2013-07-26 17:58:00,77.2,70.6,29.88,WSW,242,0.0,0.0,80,0.00,,,1.17,VWS V14.01,2013-07-27 00:58:00,
2013-07-26 18:03:00,77.3,71.0,29.88,WSW,242,0.0,0.0,81,0.00,,,1.17,VWS V14.01,2013-07-27 01:03:00,
2013-07-26 18:08:00,77.3,70.7,29.88,WSW,242,0.0,0.0,80,0.00,,,1.17,VWS V14.01,2013-07-27 01:08:00,
2013-07-26 18:13:00,77.3,70.7,29.88,WSW,242,0.0,0.0,80,0.00,,,1.17,VWS V14.01,2013-07-27 01:13:00,
2013-07-26 18:18:00,77.4,71.5,29.88,WSW,242,0.0,0.0,82,0.00,,,1.17,VWS V14.01,2013-07-27 01:18:00,
2013-07-26 18:23:00,77.0,71.1,29.88,WSW,242,0.0,0.0,82,0.00,,,1.17,VWS V14.01,2013-07-27 01:23:00,
2013-07-26 18:28:00,76.9,71.0,29.88,WSW,242,0.0,0.0,82,0.00,,,1.17,VWS V14.01,2013-07-27 01:28:00,
2013-07-26 18:33:00,77.1,71.5,29.88,WSW,242,0.0,0.0,83,0.00,,,1.17,VWS V14.01,2013-07-27 01:33:00,
2013-07-26 18:38:00,77.1,71.5,29.89,WSW,242,0.0,0.0,83,0.00,,,1.17,VWS V14.01,2013-07-27 01:38:00,
2013-07-26 18:43:00,77.0,71.4,29.88,WSW,242,0.0,0.0,83,0.00,,,1.17,VWS V14.01,2013-07-27 01:43:00,
2013-07-26 18:48:00,77.0,71.1,29.88,WSW,242,0.0,1.0,82,0.00,,,1.17,VWS V14.01,2013-07-27 01:48:00,
2013-07-26 18:53:00,76.9,71.3,29.88,WSW,242,0.0,1.0,83,0.00,,,1.17,VWS V14.01,2013-07-27 01:53:00,
2013-07-26 18:58:00,76.5,71.0,29.88,WSW,242,0.0,0.0,83,0.00,,,1.17,VWS V14.01,2013-07-27 01:58:00,
2013-07-26 19:03:00,76.4,70.9,29.88,WSW,242,0.0,0.0,83,0.00,,,1.17,VWS V14.01,2013-07-27 02:03:00,
2013-07-26 19:08:00,76.3,70.4,29.87,WSW,242,0.0,0.0,82,0.00,,,1.17,VWS V14.01,2013-07-27 02:08:00,
2013-07-26 19:13:00,76.3,71.1,29.88,WSW,242,0.0,1.0,84,0.00,,,1.17,VWS V14.01,2013-07-27 02:13:00,
2013-07-26 19:18:00,76.0,71.2,29.88,WSW,242,0.0,0.0,85,0.00,,,1.17,VWS V14.01,2013-07-27 02:18:00,
2013-07-26 19:23:00,75.7,71.2,29.88,WSW,242,0.0,0.0,86,0.00,,,1.17,VWS V14.01,2013-07-27 02:23:00,
2013-07-26 19:28:00,75.6,71.5,29.88,WSW,242,0.0,0.0,87,0.00,,,1.17,VWS V14.01,2013-07-27 02:28:00,
2013-07-26 19:33:00,75.4,71.3,29.89,WSW,242,0.0,0.0,87,0.00,,,1.17,VWS V14.01,2013-07-27 02:33:00,
2013-07-26 19:38:00,75.4,71.6,29.89,WSW,242,0.0,0.0,88,0.00,,,1.17,VWS V14.01,2013-07-27 02:38:00,
2013-07-26 19:43:00,75.3,71.5,29.89,WSW,242,0.0,0.0,88,0.00,,,1.17,VWS V14.01,2013-07-27 02:43:00,
2013-07-26 19:48:00,75.0,71.2,29.90,WSW,242,0.0,0.0,88,0.00,,,1.17,VWS V14.01,2013-07-27 02:48:00,
2013-07-26 19:53:00,74.8,71.0,29.90,WSW,242,0.0,0.0,88,0.00,,,1.17,VWS V14.01,2013-07-27 02:53:00,
2013-07-26 19:58:00,74.8,71.0,29.90,WSW,242,0.0,1.0,88,0.00,,,1.17,VWS V14.01,2013-07-27 02:58:00,
2013-07-26 20:03:00,74.7,70.6,29.90,WNW,296,0.0,3.0,87,0.00,,,1.17,VWS V14.01,2013-07-27 03:03:00,
2013-07-26 20:08:00,74.7,70.6,29.90,NNW,331,0.0,2.0,87,0.00,,,1.17,VWS V14.01,2013-07-27 03:08:00,
2013-07-26 20:13:00,74.8,70.3,29.91,NNW,331,0.0,0.0,86,0.00,,,1.17,VWS V14.01,2013-07-27 03:13:00,
2013-07-26 20:18:00,74.6,70.5,29.91,NNW,331,3.0,3.0,87,0.00,,,1.17,VWS V14.01,2013-07-27 03:18:00,
2013-07-26 20:23:00,74.3,70.5,29.91,NNW,327,1.0,3.0,88,0.00,,,1.17,VWS V14.01,2013-07-27 03:23:00,
2013-07-26 20:28:00,74.3,70.5,29.91,NNW,328,0.0,0.0,88,0.00,,,1.17,VWS V14.01,2013-07-27 03:28:00,
2013-07-26 20:33:00,74.4,70.6,29.91,NNW,328,2.0,2.0,88,0.00,,,1.17,VWS V14.01,2013-07-27 03:33:00,
2013-07-26 20:36:00,74.4,70.3,29.92,NNW,328,0.0,4.0,87,0.00,,,1.17,VWS V14.01,2013-07-27 03:36:00,
2013-07-26 20:41:00,74.5,70.0,29.92,NNW,339,2.0,4.0,86,0.00,,,1.17,VWS V14.01,2013-07-27 03:41:00,
2013-07-26 20:46:00,74.8,70.0,29.92,NNW,341,3.0,4.0,85,0.00,,,1.17,VWS V14.01,2013-07-27 03:46:00,
2013-07-26 20:51:00,75.0,69.8,29.92,North,349,2.0,4.0,84,0.00,,,1.17,VWS V14.01,2013-07-27 03:51:00,
2013-07-26 20:56:00,75.1,69.9,29.92,NNW,346,0.0,4.0,84,0.00,,,1.17,VWS V14.01,2013-07-27 03:56:00,
2013-07-26 21:01:00,75.1,69.6,29.92,NNW,346,0.0,3.0,83,0.00,,,1.17,VWS V14.01,2013-07-27 04:01:00,
2013-07-26 21:06:00,75.2,69.7,29.92,NNW,346,0.0,1.0,83,0.00,,,1.17,VWS V14.01,2013-07-27 04:06:00,
2013-07-26 21:08:00,75.2,69.7,29.92,NNW,346,0.0,2.0,83,0.00,,,1.17,VWS V14.01,2013-07-27 04:08:00,
2013-07-26 21:13:00,75.1,69.9,29.92,NNW,346,0.0,2.0,84,0.00,,,1.17,VWS V14.01,2013-07-27 04:13:00,
2013-07-26 21:18:00,74.9,70.1,29.92,NNW,346,0.0,1.0,85,0.00,,,1.17,VWS V14.01,2013-07-27 04:18:00,
2013-07-26 21:21:00,74.9,70.1,29.92,NNW,346,0.0,2.0,85,0.00,,,1.17,VWS V14.01,2013-07-27 04:21:00,
2013-07-26 21:28:00,74.8,70.0,29.92,NNW,346,0.0,2.0,85,0.00,,,1.17,VWS V14.01,2013-07-27 04:28:00,
2013-07-26 21:33:00,74.8,70.0,29.92,NNW,346,0.0,0.0,85,0.00,,,1.17,VWS V14.01,2013-07-27 04:33:00,
2013-07-26 21:38:00,74.5,70.0,29.92,NNW,346,0.0,1.0,86,0.00,,,1.17,VWS V14.01,2013-07-27 04:38:00,
2013-07-26 21:43:00,74.3,69.8,29.92,NNW,346,1.0,1.0,86,0.00,,,1.17,VWS V14.01,2013-07-27 04:43:00,
2013-07-26 21:48:00,74.2,70.1,29.92,NNW,343,0.0,2.0,87,0.00,,,1.17,VWS V14.01,2013-07-27 04:48:00,
2013-07-26 21:53:00,74.3,69.8,29.92,NNW,344,1.0,3.0,86,0.00,,,1.17,VWS V14.01,2013-07-27 04:53:00,
2013-07-26 21:58:00,74.4,69.6,29.92,NNW,344,0.0,2.0,85,0.00,,,1.17,VWS V14.01,2013-07-27 04:58:00,
2013-07-26 22:03:00,74.3,69.5,29.92,NNW,344,2.0,3.0,85,0.00,,,1.17,VWS V14.01,2013-07-27 05:03:00,
2013-07-26 22:08:00,74.3,69.5,29.92,NNW,340,0.0,2.0,85,0.00,,,1.17,VWS V14.01,2013-07-27 05:08:00,
2013-07-26 22:13:00,74.2,69.4,29.92,NNW,340,1.0,3.0,85,0.00,,,1.17,VWS V14.01,2013-07-27 05:13:00,
2013-07-26 22:18:00,74.0,69.9,29.92,NNW,336,0.0,3.0,87,0.00,,,1.17,VWS V14.01,2013-07-27 05:18:00,
2013-07-26 22:23:00,74.1,69.7,29.92,NNW,336,2.0,3.0,86,0.00,,,1.17,VWS V14.01,2013-07-27 05:23:00,
2013-07-26 22:28:00,74.2,69.8,29.92,NNW,337,0.0,0.0,86,0.00,,,1.17,VWS V14.01,2013-07-27 05:28:00,
2013-07-26 22:33:00,74.2,70.1,29.92,NNW,337,0.0,1.0,87,0.00,,,1.17,VWS V14.01,2013-07-27 05:33:00,
2013-07-26 22:38:00,74.3,69.5,29.92,NNW,337,0.0,0.0,85,0.00,,,1.17,VWS V14.01,2013-07-27 05:38:00,
2013-07-26 22:43:00,74.5,69.3,29.92,NNW,337,0.0,1.0,84,0.00,,,1.17,VWS V14.01,2013-07-27 05:43:00,
2013-07-26 22:48:00,74.5,69.7,29.93,NNW,337,0.0,0.0,85,0.00,,,1.17,VWS V14.01,2013-07-27 05:48:00,
2013-07-26 22:53:00,74.4,69.6,29.92,NNW,337,0.0,0.0,85,0.00,,,1.17,VWS V14.01,2013-07-27 05:53:00,
2013-07-26 22:58:00,74.2,69.4,29.92,NNW,337,0.0,0.0,85,0.00,,,1.17,VWS V14.01,2013-07-27 05:58:00,
2013-07-26 23:03:00,74.2,70.1,29.92,NNW,337,0.0,0.0,87,0.00,,,1.17,VWS V14.01,2013-07-27 06:03:00,
2013-07-26 23:08:00,74.1,69.7,29.92,NNW,337,1.0,2.0,86,0.00,,,1.17,VWS V14.01,2013-07-27 06:08:00,
2013-07-26 23:13:00,73.9,69.8,29.92,NNW,346,0.0,2.0,87,0.00,,,1.17,VWS V14.01,2013-07-27 06:13:00,
2013-07-26 23:18:00,73.8,69.3,29.92,NNW,346,0.0,2.0,86,0.00,,,1.17,VWS V14.01,2013-07-27 06:18:00,
2013-07-26 23:23:00,73.7,69.3,29.92,North,350,0.0,2.0,86,0.00,,,1.17,VWS V14.01,2013-07-27 06:23:00,
2013-07-26 23:28:00,73.7,69.6,29.92,North,350,1.0,1.0,87,0.00,,,1.17,VWS V14.01,2013-07-27 06:28:00,
2013-07-26 23:33:00,73.6,69.5,29.92,North,351,2.0,3.0,87,0.00,,,1.17,VWS V14.01,2013-07-27 06:33:00,
2013-07-26 23:38:00,73.6,69.5,29.92,North,351,2.0,3.0,87,0.00,,,1.17,VWS V14.01,2013-07-27 06:38:00,
2013-07-26 23:43:00,73.6,69.2,29.92,North,351,3.0,3.0,86,0.00,,,1.17,VWS V14.01,2013-07-27 06:43:00,
2013-07-26 23:48:00,73.5,69.1,29.92,North,351,1.0,2.0,86,0.00,,,1.17,VWS V14.01,2013-07-27 06:48:00,
2013-07-26 23:53:00,73.2,69.1,29.91,North,351,0.0,0.0,87,0.00,,,1.17,VWS V14.01,2013-07-27 06:53:00,
2013-07-26 23:58:00,73.0,68.9,29.91,North,351,2.0,2.0,87,0.00,,,1.17,VWS V14.01,2013-07-27 06:58:00,